Location: Newark
(25.6108°S, 54.5803°W)
Time: 08:55:01
(UTC+00:00)

Tiros 1 - Pass Details

Date: 01 November 2020
Orbit: 630 x 664 km, 48.4° (Epoch: 29 November)

Event Time Altitude Azimuth Distance (km) Brightness Sun altitude
Rises 14:25:32 0° 358° (N) 2,931 10.7 72.9°
Reaches altitude 10° 14:28:54 10° 23° (NNE) 2,039 10.1 73.5°
Maximum altitude 14:31:18 14° 54° (NE) 1,801 9.9 73.9°
Drops below altitude 10° 14:33:44 10° 85° (E) 2,062 10.1 74.3°
Sets 14:37:09 0° 110° (ESE) 2,989 10.7 74.9°
